Location: Recife
(8.0585°S, 34.8848°W)
Time: 11:11:03
(UTC-03:00)

Transit 2A - Pass Details

Date: 17 April 2026
Orbit: 594 x 950 km, 66.7° (Epoch: 14 May)

Event Time Altitude Azimuth Distance (km) Brightness Sun altitude
Rises 18:42:41 0° 172° (S) 3,409 9.2 -21.9°
Enters shadow 18:43:17 - 169° (S) 3,226 9.0 -22.1°
Reaches altitude 10° 18:45:56 10° 153° (SSE) 2,532 - -22.7°
Maximum altitude 18:49:49 18° 112° (ESE) 2,081 - -23.7°
Drops below altitude 10° 18:53:48 10° 71° (ENE) 2,631 - -24.6°
Sets 18:57:15 0° 53° (NE) 3,596 - -25.5°
